Year,Month,Day,Hour,Minute,Value (Times are PST for temperature in C)
2010,02,17,00,00,2.40
2010,02,17,00,01,2.40
2010,02,17,00,02,2.40
2010,02,17,00,03,2.40
2010,02,17,00,04,2.40
2010,02,17,00,05,2.40
2010,02,17,00,06,2.50
2010,02,17,00,07,2.50
2010,02,17,00,08,2.50
2010,02,17,00,09,2.50
2010,02,17,00,10,2.50
2010,02,17,00,11,2.50
2010,02,17,00,12,2.50
2010,02,17,00,13,2.40
2010,02,17,00,14,2.40
2010,02,17,00,15,2.40
2010,02,17,00,16,2.40
2010,02,17,00,17,2.30
2010,02,17,00,18,2.30
2010,02,17,00,19,2.30
2010,02,17,00,20,2.30
2010,02,17,00,21,2.20
2010,02,17,00,22,2.20
2010,02,17,00,23,2.20
2010,02,17,00,24,2.20
2010,02,17,00,25,2.20
2010,02,17,00,26,2.20
2010,02,17,00,27,2.20
2010,02,17,00,28,2.20
2010,02,17,00,29,2.20
2010,02,17,00,30,2.20
2010,02,17,00,31,2.20
2010,02,17,00,32,2.20
2010,02,17,00,33,2.30
2010,02,17,00,34,2.30
2010,02,17,00,35,2.30
2010,02,17,00,36,2.30
2010,02,17,00,37,2.40
2010,02,17,00,38,2.40
2010,02,17,00,39,2.40
2010,02,17,00,40,2.50
2010,02,17,00,41,2.50
2010,02,17,00,42,2.50
2010,02,17,00,43,2.50
2010,02,17,00,44,2.50
2010,02,17,00,45,2.40
2010,02,17,00,46,2.40
2010,02,17,00,47,2.40
2010,02,17,00,48,2.40
2010,02,17,00,49,2.40
2010,02,17,00,50,2.30
2010,02,17,00,51,2.30
2010,02,17,00,52,2.30
2010,02,17,00,53,2.30
2010,02,17,00,54,2.20
2010,02,17,00,55,2.20
2010,02,17,00,56,2.20
2010,02,17,00,57,2.20
2010,02,17,00,58,2.20
2010,02,17,00,59,2.10
2010,02,17,01,00,2.10
2010,02,17,01,01,2.00
2010,02,17,01,02,2.00
2010,02,17,01,03,2.00
2010,02,17,01,04,1.90
2010,02,17,01,05,1.90
2010,02,17,01,06,1.90
2010,02,17,01,07,1.90
2010,02,17,01,08,1.90
2010,02,17,01,09,1.90
2010,02,17,01,10,1.90
2010,02,17,01,11,1.90
2010,02,17,01,12,1.90
2010,02,17,01,13,1.90
2010,02,17,01,14,1.90
2010,02,17,01,15,1.90
2010,02,17,01,16,1.80
2010,02,17,01,17,1.80
2010,02,17,01,18,1.80
2010,02,17,01,19,1.80
2010,02,17,01,20,1.80
2010,02,17,01,21,1.80
2010,02,17,01,22,1.80
2010,02,17,01,23,1.80
2010,02,17,01,24,1.80
2010,02,17,01,25,1.80
2010,02,17,01,26,1.80
2010,02,17,01,27,1.80
2010,02,17,01,28,1.80
2010,02,17,01,29,1.80
2010,02,17,01,30,1.80
2010,02,17,01,31,1.80
2010,02,17,01,32,1.80
2010,02,17,01,33,1.80
2010,02,17,01,34,1.80
2010,02,17,01,35,1.80
2010,02,17,01,36,1.80
2010,02,17,01,37,1.80
2010,02,17,01,38,1.80
2010,02,17,01,39,1.80
2010,02,17,01,40,1.80
2010,02,17,01,41,1.80
2010,02,17,01,42,1.80
2010,02,17,01,43,1.80
2010,02,17,01,44,1.80
2010,02,17,01,45,1.80
2010,02,17,01,46,1.80
2010,02,17,01,47,1.70
2010,02,17,01,48,1.70
2010,02,17,01,49,1.70
2010,02,17,01,50,1.70
2010,02,17,01,51,1.70
2010,02,17,01,52,1.70
2010,02,17,01,53,1.60
2010,02,17,01,54,1.60
2010,02,17,01,55,1.60
2010,02,17,01,56,1.50
2010,02,17,01,57,1.50
2010,02,17,01,58,1.50
2010,02,17,01,59,1.40
2010,02,17,02,00,1.40
2010,02,17,02,01,1.40
2010,02,17,02,02,1.40
2010,02,17,02,03,1.30
2010,02,17,02,04,1.30
2010,02,17,02,05,1.30
2010,02,17,02,06,1.30
2010,02,17,02,07,1.30
2010,02,17,02,08,1.30
2010,02,17,02,09,1.30
2010,02,17,02,10,1.30
2010,02,17,02,11,1.30
2010,02,17,02,12,1.30
2010,02,17,02,13,1.30
2010,02,17,02,14,1.30
2010,02,17,02,15,1.30
2010,02,17,02,16,1.30
2010,02,17,02,17,1.20
2010,02,17,02,18,1.20
2010,02,17,02,19,1.20
2010,02,17,02,20,1.20
2010,02,17,02,21,1.20
2010,02,17,02,22,1.20
2010,02,17,02,23,1.20
2010,02,17,02,24,1.10
2010,02,17,02,25,1.10
2010,02,17,02,26,1.10
2010,02,17,02,27,1.10
2010,02,17,02,28,1.10
2010,02,17,02,29,1.10
2010,02,17,02,30,1.20
2010,02,17,02,31,1.20
2010,02,17,02,32,1.20
2010,02,17,02,33,1.20
2010,02,17,02,34,1.30
2010,02,17,02,35,1.40
2010,02,17,02,36,1.50
2010,02,17,02,37,1.50
2010,02,17,02,38,1.60
2010,02,17,02,39,1.70
2010,02,17,02,40,1.70
2010,02,17,02,41,1.80
2010,02,17,02,42,1.80
2010,02,17,02,43,1.80
2010,02,17,02,44,1.80
2010,02,17,02,45,1.80
2010,02,17,02,46,1.80
2010,02,17,02,47,1.80
2010,02,17,02,48,1.80
2010,02,17,02,49,1.80
2010,02,17,02,50,1.80
2010,02,17,02,51,1.80
2010,02,17,02,52,1.80
2010,02,17,02,53,1.90
2010,02,17,02,54,1.90
2010,02,17,02,55,1.90
2010,02,17,02,56,1.90
2010,02,17,02,57,2.00
2010,02,17,02,58,2.00
2010,02,17,02,59,2.00
2010,02,17,03,00,1.90
2010,02,17,03,01,1.90
2010,02,17,03,02,1.90
2010,02,17,03,03,1.90
2010,02,17,03,04,2.00
2010,02,17,03,05,2.00
2010,02,17,03,06,2.10
2010,02,17,03,07,2.10
2010,02,17,03,08,2.10
2010,02,17,03,09,2.00
2010,02,17,03,10,2.00
2010,02,17,03,11,2.00
2010,02,17,03,12,2.10
2010,02,17,03,13,2.10
2010,02,17,03,14,2.20
2010,02,17,03,15,2.20
2010,02,17,03,16,2.20
2010,02,17,03,17,2.30
2010,02,17,03,18,2.30
2010,02,17,03,19,2.30
2010,02,17,03,20,2.30
2010,02,17,03,21,2.30
2010,02,17,03,22,2.30
2010,02,17,03,23,2.20
2010,02,17,03,24,2.20
2010,02,17,03,25,2.20
2010,02,17,03,26,2.30
2010,02,17,03,27,2.30
2010,02,17,03,28,2.40
2010,02,17,03,29,2.40
2010,02,17,03,30,2.40
2010,02,17,03,31,2.40
2010,02,17,03,32,2.30
2010,02,17,03,33,2.30
2010,02,17,03,34,2.20
2010,02,17,03,35,2.20
2010,02,17,03,36,2.20
2010,02,17,03,37,2.20
2010,02,17,03,38,2.10
2010,02,17,03,39,2.10
2010,02,17,03,40,2.00
2010,02,17,03,41,2.00
2010,02,17,03,42,2.00
2010,02,17,03,43,2.00
2010,02,17,03,44,2.00
2010,02,17,03,45,2.10
2010,02,17,03,46,2.10
2010,02,17,03,47,2.10
2010,02,17,03,48,2.20
2010,02,17,03,49,2.20
2010,02,17,03,50,2.20
2010,02,17,03,51,2.20
2010,02,17,03,52,2.30
2010,02,17,03,53,2.30
2010,02,17,03,54,2.30
2010,02,17,03,55,2.30
2010,02,17,03,56,2.30
2010,02,17,03,57,2.30
2010,02,17,03,58,2.30
2010,02,17,03,59,2.30
2010,02,17,04,00,2.30
2010,02,17,04,01,2.30
2010,02,17,04,02,2.30
2010,02,17,04,03,2.20
2010,02,17,04,04,2.30
2010,02,17,04,05,2.30
2010,02,17,04,06,2.30
2010,02,17,04,07,2.30
2010,02,17,04,08,2.40
2010,02,17,04,09,2.40
2010,02,17,04,10,2.40
2010,02,17,04,11,2.40
2010,02,17,04,12,2.40
2010,02,17,04,13,2.50
2010,02,17,04,14,2.50
2010,02,17,04,15,2.60
2010,02,17,04,16,2.60
2010,02,17,04,17,2.70
2010,02,17,04,18,2.70
2010,02,17,04,19,2.70
2010,02,17,04,20,2.80
2010,02,17,04,21,2.80
2010,02,17,04,22,2.90
2010,02,17,04,23,2.90
2010,02,17,04,24,2.90
2010,02,17,04,25,3.10
2010,02,17,04,26,3.10
2010,02,17,04,27,3.20
2010,02,17,04,28,3.30
2010,02,17,04,29,3.50
2010,02,17,04,30,3.60
2010,02,17,04,31,3.70
2010,02,17,04,32,3.80
2010,02,17,04,33,3.90
2010,02,17,04,34,4.00
2010,02,17,04,35,4.00
2010,02,17,04,36,4.20
2010,02,17,04,37,4.20
2010,02,17,04,38,4.30
2010,02,17,04,39,4.40
2010,02,17,04,40,4.50
2010,02,17,04,41,4.50
2010,02,17,04,42,4.50
2010,02,17,04,43,4.60
2010,02,17,04,44,4.60
2010,02,17,04,45,4.60
2010,02,17,04,46,4.60
2010,02,17,04,47,4.60
2010,02,17,04,48,4.60
2010,02,17,04,49,4.70
2010,02,17,04,50,4.70
2010,02,17,04,51,4.70
2010,02,17,04,52,4.70
2010,02,17,04,53,4.70
2010,02,17,04,54,4.80
2010,02,17,04,55,4.80
2010,02,17,04,56,4.80
2010,02,17,04,57,4.80
2010,02,17,04,58,4.80
2010,02,17,04,59,4.90
2010,02,17,05,00,4.90
2010,02,17,05,01,4.90
2010,02,17,05,02,4.90
2010,02,17,05,03,4.90
2010,02,17,05,04,4.90
2010,02,17,05,05,4.90
2010,02,17,05,06,4.90
2010,02,17,05,07,4.90
2010,02,17,05,08,4.90
2010,02,17,05,09,5.00
2010,02,17,05,10,5.10
2010,02,17,05,11,5.10
2010,02,17,05,12,5.10
2010,02,17,05,13,5.10
2010,02,17,05,14,5.10
2010,02,17,05,15,5.10
2010,02,17,05,16,5.10
2010,02,17,05,17,5.10
2010,02,17,05,18,5.10
2010,02,17,05,19,5.10
2010,02,17,05,20,5.10
2010,02,17,05,21,5.10
2010,02,17,05,22,5.10
2010,02,17,05,23,5.10
2010,02,17,05,24,5.10
2010,02,17,05,25,5.10
2010,02,17,05,26,5.10
2010,02,17,05,27,5.10
2010,02,17,05,28,5.10
2010,02,17,05,29,5.10
2010,02,17,05,30,5.10
2010,02,17,05,31,5.10
2010,02,17,05,32,5.10
2010,02,17,05,33,5.10
2010,02,17,05,34,5.10
2010,02,17,05,35,5.00
2010,02,17,05,36,5.10
2010,02,17,05,37,5.10
2010,02,17,05,38,5.10
2010,02,17,05,39,5.10
2010,02,17,05,40,5.10
2010,02,17,05,41,5.10
2010,02,17,05,42,4.90
2010,02,17,05,43,4.90
2010,02,17,05,44,4.90
2010,02,17,05,45,4.90
2010,02,17,05,46,4.90
2010,02,17,05,47,4.90
2010,02,17,05,48,4.90
2010,02,17,05,49,4.90
2010,02,17,05,50,4.90
2010,02,17,05,51,4.90
2010,02,17,05,52,4.90
2010,02,17,05,53,4.90
2010,02,17,05,54,4.90
2010,02,17,05,55,4.90
2010,02,17,05,56,4.90
2010,02,17,05,57,4.90
2010,02,17,05,58,4.90
2010,02,17,05,59,4.90
2010,02,17,06,00,4.90
2010,02,17,06,01,4.90
2010,02,17,06,02,4.90
2010,02,17,06,03,4.90
2010,02,17,06,04,4.90
2010,02,17,06,05,4.90
2010,02,17,06,06,5.00
2010,02,17,06,07,5.10
2010,02,17,06,08,5.10
2010,02,17,06,09,5.10
2010,02,17,06,10,5.10
2010,02,17,06,11,5.10
2010,02,17,06,12,5.10
2010,02,17,06,13,5.10
2010,02,17,06,14,5.10
2010,02,17,06,15,5.10
2010,02,17,06,16,5.10
2010,02,17,06,17,5.10
2010,02,17,06,18,5.10
2010,02,17,06,19,5.10
2010,02,17,06,20,5.10
2010,02,17,06,21,5.10
2010,02,17,06,22,5.10
2010,02,17,06,23,5.10
2010,02,17,06,24,5.10
2010,02,17,06,25,5.10
2010,02,17,06,26,5.10
2010,02,17,06,27,5.10
2010,02,17,06,28,5.10
2010,02,17,06,29,5.10
2010,02,17,06,30,5.10
2010,02,17,06,31,5.10
2010,02,17,06,32,5.10
2010,02,17,06,33,5.10
2010,02,17,06,34,5.10
2010,02,17,06,35,5.10
2010,02,17,06,36,5.10
2010,02,17,06,37,5.20
2010,02,17,06,38,5.20
2010,02,17,06,39,5.10
2010,02,17,06,40,5.10
2010,02,17,06,41,5.10
2010,02,17,06,42,5.10
2010,02,17,06,43,5.10
2010,02,17,06,44,5.10
2010,02,17,06,45,5.10
2010,02,17,06,46,5.10
2010,02,17,06,47,5.10
2010,02,17,06,48,5.10
2010,02,17,06,49,5.10
2010,02,17,06,50,5.10
2010,02,17,06,51,5.20
2010,02,17,06,52,5.20
2010,02,17,06,53,5.20
2010,02,17,06,54,5.20
2010,02,17,06,55,5.20
2010,02,17,06,56,5.20
2010,02,17,06,57,5.20
2010,02,17,06,58,5.20
2010,02,17,06,59,5.20
2010,02,17,07,00,5.10
2010,02,17,07,01,5.10
2010,02,17,07,02,5.10
2010,02,17,07,03,5.10
2010,02,17,07,04,5.10
2010,02,17,07,05,5.10
2010,02,17,07,06,5.10
2010,02,17,07,07,5.00
2010,02,17,07,08,4.90
2010,02,17,07,09,4.90
2010,02,17,07,10,4.90
2010,02,17,07,11,4.90
2010,02,17,07,12,4.90
2010,02,17,07,13,4.90
2010,02,17,07,14,4.90
2010,02,17,07,15,4.90
2010,02,17,07,16,4.90
2010,02,17,07,17,4.80
2010,02,17,07,18,4.80
2010,02,17,07,19,4.80
2010,02,17,07,20,4.80
2010,02,17,07,21,4.80
2010,02,17,07,22,4.80
2010,02,17,07,23,4.70
2010,02,17,07,24,4.70
2010,02,17,07,25,4.70
2010,02,17,07,26,4.70
2010,02,17,07,27,4.70
2010,02,17,07,28,4.70
2010,02,17,07,29,4.70
2010,02,17,07,30,4.70
2010,02,17,07,31,4.70
2010,02,17,07,32,4.70
2010,02,17,07,33,4.70
2010,02,17,07,34,4.70
2010,02,17,07,35,4.70
2010,02,17,07,36,4.70
2010,02,17,07,37,4.70
2010,02,17,07,38,4.70
2010,02,17,07,39,4.70
2010,02,17,07,40,4.70
2010,02,17,07,41,4.70
2010,02,17,07,42,4.70
2010,02,17,07,43,4.70
2010,02,17,07,44,4.70
2010,02,17,07,45,4.70
2010,02,17,07,46,4.70
2010,02,17,07,47,4.70
2010,02,17,07,48,4.70
2010,02,17,07,49,4.70
2010,02,17,07,50,4.80
2010,02,17,07,51,4.80
2010,02,17,07,52,4.80
2010,02,17,07,53,4.80
2010,02,17,07,54,4.90
2010,02,17,07,55,4.90
2010,02,17,07,56,4.90
2010,02,17,07,57,4.90
2010,02,17,07,58,4.90
2010,02,17,07,59,4.90
2010,02,17,08,00,4.90
2010,02,17,08,01,5.10
2010,02,17,08,02,5.10
2010,02,17,08,03,5.10
2010,02,17,08,04,5.10
2010,02,17,08,05,5.10
2010,02,17,08,06,5.10
2010,02,17,08,07,5.10
2010,02,17,08,08,5.20
2010,02,17,08,09,5.20
2010,02,17,08,10,5.20
2010,02,17,08,11,5.30
2010,02,17,08,12,5.30
2010,02,17,08,13,5.30
2010,02,17,08,14,5.40
2010,02,17,08,15,5.40
2010,02,17,08,16,5.50
2010,02,17,08,17,5.50
2010,02,17,08,18,5.60
2010,02,17,08,19,5.60
2010,02,17,08,20,5.70
2010,02,17,08,21,5.70
2010,02,17,08,22,5.70
2010,02,17,08,23,5.70
2010,02,17,08,24,5.80
2010,02,17,08,25,5.80
2010,02,17,08,26,5.90
2010,02,17,08,27,5.90
2010,02,17,08,28,6.00
2010,02,17,08,29,6.00
2010,02,17,08,30,6.00
2010,02,17,08,31,6.00
2010,02,17,08,32,6.10
2010,02,17,08,33,6.10
2010,02,17,08,34,6.10
2010,02,17,08,35,6.10
2010,02,17,08,36,6.20
2010,02,17,08,37,6.20
2010,02,17,08,38,6.20
2010,02,17,08,39,6.30
2010,02,17,08,40,6.30
2010,02,17,08,41,6.30
2010,02,17,08,42,6.40
2010,02,17,08,43,6.40
2010,02,17,08,44,6.40
2010,02,17,08,45,6.40
2010,02,17,08,46,6.40
2010,02,17,08,47,6.40
2010,02,17,08,48,6.40
2010,02,17,08,49,6.40
2010,02,17,08,50,6.40
2010,02,17,08,51,6.40
2010,02,17,08,52,6.40
2010,02,17,08,53,6.40
2010,02,17,08,54,6.40
2010,02,17,08,55,6.40
2010,02,17,08,56,6.50
2010,02,17,08,57,6.60
2010,02,17,08,58,6.60
2010,02,17,08,59,6.60
2010,02,17,09,00,6.60
2010,02,17,09,01,6.60
2010,02,17,09,02,6.70
2010,02,17,09,03,6.70
2010,02,17,09,04,6.70
2010,02,17,09,05,6.70
2010,02,17,09,06,6.70
2010,02,17,09,07,6.80
2010,02,17,09,08,6.80
2010,02,17,09,09,6.80
2010,02,17,09,10,6.80
2010,02,17,09,11,6.90
2010,02,17,09,12,6.90
2010,02,17,09,13,6.90
2010,02,17,09,14,6.90
2010,02,17,09,15,7.00
2010,02,17,09,16,7.00
2010,02,17,09,17,7.00
2010,02,17,09,18,7.00
2010,02,17,09,19,7.00
2010,02,17,09,20,7.00
2010,02,17,09,21,7.00
2010,02,17,09,22,7.10
2010,02,17,09,23,7.10
2010,02,17,09,24,7.10
2010,02,17,09,25,7.10
2010,02,17,09,26,7.20
2010,02,17,09,27,7.20
2010,02,17,09,28,7.20
2010,02,17,09,29,7.30
2010,02,17,09,30,7.30
2010,02,17,09,31,7.20
2010,02,17,09,32,7.30
2010,02,17,09,33,7.30
2010,02,17,09,34,7.30
2010,02,17,09,35,7.30
2010,02,17,09,36,7.30
2010,02,17,09,37,7.30
2010,02,17,09,38,7.30
2010,02,17,09,39,7.30
2010,02,17,09,40,7.30
2010,02,17,09,41,7.30
2010,02,17,09,42,7.30
2010,02,17,09,43,7.30
2010,02,17,09,44,7.30
2010,02,17,09,45,7.30
2010,02,17,09,46,7.40
2010,02,17,09,47,7.40
2010,02,17,09,48,7.40
2010,02,17,09,49,7.40
2010,02,17,09,50,7.50
2010,02,17,09,51,7.50
2010,02,17,09,52,7.50
2010,02,17,09,53,7.50
2010,02,17,09,54,7.50
2010,02,17,09,55,7.40
2010,02,17,09,56,7.40
2010,02,17,09,57,7.50
2010,02,17,09,58,7.50
2010,02,17,09,59,7.50
2010,02,17,10,00,7.40
2010,02,17,10,01,7.40
2010,02,17,10,02,7.30
2010,02,17,10,03,7.30
2010,02,17,10,04,7.30
2010,02,17,10,05,7.30
2010,02,17,10,06,7.40
2010,02,17,10,07,7.50
2010,02,17,10,08,7.50
2010,02,17,10,09,7.50
2010,02,17,10,10,7.50
2010,02,17,10,11,7.50
2010,02,17,10,12,7.60
2010,02,17,10,13,7.60
2010,02,17,10,14,7.60
2010,02,17,10,15,7.60
2010,02,17,10,16,7.60
2010,02,17,10,17,7.60
2010,02,17,10,18,7.70
2010,02,17,10,19,7.70
2010,02,17,10,20,7.70
2010,02,17,10,21,7.70
2010,02,17,10,22,7.70
2010,02,17,10,23,7.70
2010,02,17,10,24,7.70
2010,02,17,10,25,7.80
2010,02,17,10,26,7.80
2010,02,17,10,27,7.80
2010,02,17,10,28,7.80
2010,02,17,10,29,7.80
2010,02,17,10,30,7.80
2010,02,17,10,31,7.80
2010,02,17,10,32,7.80
2010,02,17,10,33,7.80
2010,02,17,10,34,7.80
2010,02,17,10,35,7.80
2010,02,17,10,36,7.80
2010,02,17,10,37,7.80
2010,02,17,10,38,7.90
2010,02,17,10,39,7.80
2010,02,17,10,40,7.80
2010,02,17,10,41,7.80
2010,02,17,10,42,7.80
2010,02,17,10,43,7.80
2010,02,17,10,44,7.80
2010,02,17,10,45,7.80
2010,02,17,10,46,7.80
2010,02,17,10,47,7.80
2010,02,17,10,48,7.80
2010,02,17,10,49,7.80
2010,02,17,10,50,7.80
2010,02,17,10,51,7.80
2010,02,17,10,52,7.80
2010,02,17,10,53,7.80
2010,02,17,10,54,7.80
2010,02,17,10,55,7.80
2010,02,17,10,56,7.80
2010,02,17,10,57,7.80
2010,02,17,10,58,7.80
2010,02,17,10,59,7.80
2010,02,17,11,00,7.90
2010,02,17,11,01,7.90
2010,02,17,11,02,7.90
2010,02,17,11,03,8.00
2010,02,17,11,04,8.00
2010,02,17,11,05,8.00
2010,02,17,11,06,8.00
2010,02,17,11,07,8.00
2010,02,17,11,08,8.10
2010,02,17,11,09,8.10
2010,02,17,11,10,8.10
2010,02,17,11,11,8.10
2010,02,17,11,12,8.10
2010,02,17,11,13,7.40
2010,02,17,11,14,7.30
2010,02,17,11,15,7.30
2010,02,17,11,16,7.30
2010,02,17,11,17,7.30
2010,02,17,11,18,7.40
2010,02,17,11,19,7.40
2010,02,17,11,20,7.40
2010,02,17,11,21,7.50
2010,02,17,11,22,7.50
2010,02,17,11,23,7.50
2010,02,17,11,24,7.50
2010,02,17,11,25,7.50
2010,02,17,11,26,7.60
2010,02,17,11,27,7.60
2010,02,17,11,28,7.60
2010,02,17,11,29,7.60
2010,02,17,11,30,7.60
2010,02,17,11,31,7.60
2010,02,17,11,32,7.60
2010,02,17,11,33,7.70
2010,02,17,11,34,7.70
2010,02,17,11,35,7.70
2010,02,17,11,36,7.70
2010,02,17,11,37,7.70
2010,02,17,11,38,7.80
2010,02,17,11,39,7.80
2010,02,17,11,40,7.90
2010,02,17,11,41,7.90
2010,02,17,11,42,7.80
2010,02,17,11,43,7.90
2010,02,17,11,44,7.90
2010,02,17,11,45,7.90
2010,02,17,11,46,7.90
2010,02,17,11,47,8.00
2010,02,17,11,48,7.90
2010,02,17,11,49,7.90
2010,02,17,11,50,7.90
2010,02,17,11,51,7.90
2010,02,17,11,52,7.90
2010,02,17,11,53,7.90
2010,02,17,11,54,7.90
2010,02,17,11,55,7.80
2010,02,17,11,56,7.90
2010,02,17,11,57,7.90
2010,02,17,11,58,7.90
2010,02,17,11,59,8.00
2010,02,17,12,00,8.00
2010,02,17,12,01,8.00
2010,02,17,12,02,8.00
2010,02,17,12,03,8.00
2010,02,17,12,04,8.00
2010,02,17,12,05,8.00
2010,02,17,12,06,8.00
2010,02,17,12,07,8.00
2010,02,17,12,08,8.10
2010,02,17,12,09,8.10
2010,02,17,12,10,8.10
2010,02,17,12,11,8.10
2010,02,17,12,12,8.10
2010,02,17,12,13,8.10
2010,02,17,12,14,8.00
2010,02,17,12,15,8.00
2010,02,17,12,16,8.10
2010,02,17,12,17,8.10
2010,02,17,12,18,8.10
2010,02,17,12,19,8.10
2010,02,17,12,20,8.20
2010,02,17,12,21,8.20
2010,02,17,12,22,8.20
2010,02,17,12,23,8.20
2010,02,17,12,24,8.20
2010,02,17,12,25,8.20
2010,02,17,12,26,8.20
2010,02,17,12,27,8.20
2010,02,17,12,28,8.30
2010,02,17,12,29,8.30
2010,02,17,12,30,8.30
2010,02,17,12,31,8.30
2010,02,17,12,32,8.30
2010,02,17,12,33,8.20
2010,02,17,12,34,8.20
2010,02,17,12,35,8.30
2010,02,17,12,36,8.30
2010,02,17,12,37,8.30
2010,02,17,12,38,8.30
2010,02,17,12,39,8.30
2010,02,17,12,40,8.40
2010,02,17,12,41,8.40
2010,02,17,12,42,8.50
2010,02,17,12,43,8.60
2010,02,17,12,44,8.70
2010,02,17,12,45,8.70
2010,02,17,12,46,8.70
2010,02,17,12,47,8.70
2010,02,17,12,48,8.70
2010,02,17,12,49,8.70
2010,02,17,12,50,8.80
2010,02,17,12,51,8.80
2010,02,17,12,52,8.80
2010,02,17,12,53,8.80
2010,02,17,12,54,8.80
2010,02,17,12,55,8.80
2010,02,17,12,56,8.80
2010,02,17,12,57,8.80
2010,02,17,12,58,8.80
2010,02,17,12,59,8.80
2010,02,17,13,00,8.80
2010,02,17,13,01,8.80
2010,02,17,13,02,8.90
2010,02,17,13,03,8.90
2010,02,17,13,04,8.90
2010,02,17,13,05,8.90
2010,02,17,13,06,8.90
2010,02,17,13,07,8.90
2010,02,17,13,08,8.90
2010,02,17,13,09,8.90
2010,02,17,13,10,8.90
2010,02,17,13,11,9.00
2010,02,17,13,12,9.00
2010,02,17,13,13,9.00
2010,02,17,13,14,9.00
2010,02,17,13,15,9.10
2010,02,17,13,16,9.20
2010,02,17,13,17,9.20
2010,02,17,13,18,9.20
2010,02,17,13,19,9.20
2010,02,17,13,20,9.20
2010,02,17,13,21,9.20
2010,02,17,13,22,9.20
2010,02,17,13,23,9.20
2010,02,17,13,24,9.20
2010,02,17,13,25,9.20
2010,02,17,13,26,9.20
2010,02,17,13,27,9.20
2010,02,17,13,28,9.20
2010,02,17,13,29,9.20
2010,02,17,13,30,9.30
2010,02,17,13,31,9.30
2010,02,17,13,32,9.40
2010,02,17,13,33,9.40
2010,02,17,13,34,9.40
2010,02,17,13,35,9.40
2010,02,17,13,36,9.40
2010,02,17,13,37,9.50
2010,02,17,13,38,9.40
2010,02,17,13,39,9.50
2010,02,17,13,40,9.50
2010,02,17,13,41,9.50
2010,02,17,13,42,9.50
2010,02,17,13,43,9.50
2010,02,17,13,44,9.40
2010,02,17,13,45,9.40
2010,02,17,13,46,9.40
2010,02,17,13,47,9.50
2010,02,17,13,48,9.60
2010,02,17,13,49,9.60
2010,02,17,13,50,9.50
2010,02,17,13,51,9.50
2010,02,17,13,52,9.60
2010,02,17,13,53,9.60
2010,02,17,13,54,9.60
2010,02,17,13,55,9.60
2010,02,17,13,56,9.60
2010,02,17,13,57,9.70
2010,02,17,13,58,9.70
2010,02,17,13,59,9.60
2010,02,17,14,00,9.60
2010,02,17,14,01,9.60
2010,02,17,14,02,9.60
2010,02,17,14,03,9.60
2010,02,17,14,04,9.60
2010,02,17,14,05,9.70
2010,02,17,14,06,9.70
2010,02,17,14,07,9.70
2010,02,17,14,08,9.70
2010,02,17,14,09,9.60
2010,02,17,14,10,9.60
2010,02,17,14,11,9.50
2010,02,17,14,12,9.50
2010,02,17,14,13,9.60
2010,02,17,14,14,9.60
2010,02,17,14,15,9.70
2010,02,17,14,16,9.70
2010,02,17,14,17,9.70
2010,02,17,14,18,9.70
2010,02,17,14,19,9.70
2010,02,17,14,20,9.70
2010,02,17,14,21,9.70
2010,02,17,14,22,9.70
2010,02,17,14,23,9.70
2010,02,17,14,24,9.70
2010,02,17,14,25,9.70
2010,02,17,14,26,9.70
2010,02,17,14,27,9.80
2010,02,17,14,28,9.70
2010,02,17,14,29,9.70
2010,02,17,14,30,9.70
2010,02,17,14,31,9.70
2010,02,17,14,32,9.70
2010,02,17,14,33,9.60
2010,02,17,14,34,9.60
2010,02,17,14,35,9.60
2010,02,17,14,36,9.60
2010,02,17,14,37,9.70
2010,02,17,14,38,9.70
2010,02,17,14,39,9.70
2010,02,17,14,40,9.70
2010,02,17,14,41,9.80
2010,02,17,14,42,9.80
2010,02,17,14,43,9.80
2010,02,17,14,44,9.80
2010,02,17,14,45,9.80
2010,02,17,14,46,9.80
2010,02,17,14,47,9.80
2010,02,17,14,48,9.80
2010,02,17,14,49,9.90
2010,02,17,14,50,9.90
2010,02,17,14,51,9.90
2010,02,17,14,52,9.90
2010,02,17,14,53,9.90
2010,02,17,14,54,9.90
2010,02,17,14,55,9.90
2010,02,17,14,56,9.90
2010,02,17,14,57,9.90
2010,02,17,14,58,9.90
2010,02,17,14,59,9.90
2010,02,17,15,00,9.90
2010,02,17,15,01,10.00
2010,02,17,15,02,9.90
2010,02,17,15,03,10.00
2010,02,17,15,04,10.10
2010,02,17,15,05,10.10
2010,02,17,15,06,10.10
2010,02,17,15,07,10.10
2010,02,17,15,08,10.10
2010,02,17,15,09,10.10
2010,02,17,15,10,10.10
2010,02,17,15,11,10.10
2010,02,17,15,12,10.10
2010,02,17,15,13,10.10
2010,02,17,15,14,10.10
2010,02,17,15,15,10.10
2010,02,17,15,16,10.20
2010,02,17,15,17,10.20
2010,02,17,15,18,10.20
2010,02,17,15,19,10.20
2010,02,17,15,20,10.30
2010,02,17,15,21,10.30
2010,02,17,15,22,10.30
2010,02,17,15,23,10.30
2010,02,17,15,24,10.30
2010,02,17,15,25,10.40
2010,02,17,15,26,10.40
2010,02,17,15,27,10.40
2010,02,17,15,28,10.40
2010,02,17,15,29,10.40
2010,02,17,15,30,10.40
2010,02,17,15,31,10.40
2010,02,17,15,32,10.40
2010,02,17,15,33,10.40
2010,02,17,15,34,10.40
2010,02,17,15,35,10.40
2010,02,17,15,36,10.40
2010,02,17,15,37,10.40
2010,02,17,15,38,10.40
2010,02,17,15,39,10.40
2010,02,17,15,40,10.40
2010,02,17,15,41,10.50
2010,02,17,15,42,10.40
2010,02,17,15,43,10.50
2010,02,17,15,44,10.60
2010,02,17,15,45,10.60
2010,02,17,15,46,10.60
2010,02,17,15,47,10.60
2010,02,17,15,48,10.60
2010,02,17,15,49,10.60
2010,02,17,15,50,10.60
2010,02,17,15,51,10.60
2010,02,17,15,52,10.60
2010,02,17,15,53,10.60
2010,02,17,15,54,10.60
2010,02,17,15,55,10.60
2010,02,17,15,56,10.60
2010,02,17,15,57,10.50
2010,02,17,15,58,10.40
2010,02,17,15,59,10.40
2010,02,17,16,00,10.40
2010,02,17,16,01,10.40
2010,02,17,16,02,10.40
2010,02,17,16,03,10.40
2010,02,17,16,04,10.40
2010,02,17,16,05,10.30
2010,02,17,16,06,10.30
2010,02,17,16,07,10.30
2010,02,17,16,08,10.30
2010,02,17,16,09,10.30
2010,02,17,16,10,10.30
2010,02,17,16,11,10.30
2010,02,17,16,12,10.30
2010,02,17,16,13,10.20
2010,02,17,16,14,10.20
2010,02,17,16,15,10.20
2010,02,17,16,16,10.20
2010,02,17,16,17,10.20
2010,02,17,16,18,10.10
2010,02,17,16,19,10.10
2010,02,17,16,20,10.10
2010,02,17,16,21,10.10
2010,02,17,16,22,10.10
2010,02,17,16,23,9.90
2010,02,17,16,24,9.90
2010,02,17,16,25,10.10
2010,02,17,16,26,10.10
2010,02,17,16,27,10.10
2010,02,17,16,28,10.10
2010,02,17,16,29,10.10
2010,02,17,16,30,10.10
2010,02,17,16,31,10.10
2010,02,17,16,32,10.10
2010,02,17,16,33,10.10
2010,02,17,16,34,10.10
2010,02,17,16,35,10.10
2010,02,17,16,36,10.00
2010,02,17,16,37,9.90
2010,02,17,16,38,9.90
2010,02,17,16,39,9.90
2010,02,17,16,40,9.90
2010,02,17,16,41,9.90
2010,02,17,16,42,9.90
2010,02,17,16,43,9.90
2010,02,17,16,44,9.90
2010,02,17,16,45,9.90
2010,02,17,16,46,9.90
2010,02,17,16,47,9.90
2010,02,17,16,48,9.90
2010,02,17,16,49,9.80
2010,02,17,16,50,9.80
2010,02,17,16,51,9.80
2010,02,17,16,52,9.70
2010,02,17,16,53,9.70
2010,02,17,16,54,9.70
2010,02,17,16,55,9.70
2010,02,17,16,56,9.70
2010,02,17,16,57,9.70
2010,02,17,16,58,9.70
2010,02,17,16,59,9.70
2010,02,17,17,00,9.70
2010,02,17,17,01,9.70
2010,02,17,17,02,9.70
2010,02,17,17,03,9.70
2010,02,17,17,04,9.70
2010,02,17,17,05,9.70
2010,02,17,17,06,9.70
2010,02,17,17,07,9.60
2010,02,17,17,08,9.60
2010,02,17,17,09,9.60
2010,02,17,17,10,9.60
2010,02,17,17,11,9.60
2010,02,17,17,12,9.50
2010,02,17,17,13,9.50
2010,02,17,17,14,9.50
2010,02,17,17,15,9.50
2010,02,17,17,16,9.50
2010,02,17,17,17,9.40
2010,02,17,17,18,9.40
2010,02,17,17,19,9.40
2010,02,17,17,20,9.40
2010,02,17,17,21,9.40
2010,02,17,17,22,9.40
2010,02,17,17,23,9.40
2010,02,17,17,24,9.30
2010,02,17,17,25,9.30
2010,02,17,17,26,9.30
2010,02,17,17,27,9.30
2010,02,17,17,28,9.30
2010,02,17,17,29,9.20
2010,02,17,17,30,9.20
2010,02,17,17,31,9.20
2010,02,17,17,32,9.20
2010,02,17,17,33,9.20
2010,02,17,17,34,9.20
2010,02,17,17,35,9.20
2010,02,17,17,36,9.10
2010,02,17,17,37,9.10
2010,02,17,17,38,9.10
2010,02,17,17,39,9.00
2010,02,17,17,40,9.00
2010,02,17,17,41,9.00
2010,02,17,17,42,8.90
2010,02,17,17,43,8.90
2010,02,17,17,44,8.90
2010,02,17,17,45,8.80
2010,02,17,17,46,8.80
2010,02,17,17,47,8.80
2010,02,17,17,48,8.70
2010,02,17,17,49,8.70
2010,02,17,17,50,8.70
2010,02,17,17,51,8.70
2010,02,17,17,52,8.70
2010,02,17,17,53,8.70
2010,02,17,17,54,8.70
2010,02,17,17,55,8.70
2010,02,17,17,56,8.70
2010,02,17,17,57,8.70
2010,02,17,17,58,8.70
2010,02,17,17,59,8.60
2010,02,17,18,00,8.60
2010,02,17,18,01,8.60
2010,02,17,18,02,8.50